Powrót do katalogu

THORAD AGENA D DEB

AktywnyPO
NORAD 4918·DEBRIS·🇺🇸 United States

Wystrzelony Apr 8, 1970 z Vandenberg Space Force Base

Loading…

Następne Przeloty (najbliższe 24 godziny)

TLE

ŚwieżeSource: Space-Track

Epoka: Sep 13, 2026, 19:54 UTC

1 04918U 70025FQ  26256.82920974  .00000346  00000-0  77233-3 0  9996
2 04918  99.4939  31.4635 0162509 188.9627 170.8586 13.29662083724416

Śledź THORAD AGENA D DEB w czasie rzeczywistym z AllMySat

Download on the App Store